Needles, CA

1:43 AM PDT on April 25, 2017 (GMT -0700)
Needles

Weather History for KEED - April, 2014

Change the Weather History Date:

Thursday, April 3, 2014

  Actual Average Record
Temperature  
Mean Temperature 60 °F 68 °F  
Max Temperature 75 °F 82 °F 99 °F (1961)
Min Temperature 46 °F 55 °F 40 °F (1909)
Degree Days  
Heating Degree Days 4    
Cooling Degree Days 0    
Growing Degree Days 10 (Base 50)    
Moisture  
Dew Point 25 °F    
Average Humidity 28    
Maximum Humidity 54    
Minimum Humidity 13    
Precipitation  
Precipitation 0.00 in 0.01 in 1.65 in (1965)
Month to date precipitation 0.03  
Year to date precipitation 2.07  
Sea Level Pressure  
Sea Level Pressure 29.98 in    
Wind  
Wind Speed 6 mph (West)    
Max Wind Speed 13 mph    
Max Gust Speed 18 mph    
Visibility 10 miles    
Events      
T = Trace of Precipitation, MM = Missing Value Source: NWS Daily Summary

Daily Weather History Graph

Daily Weather History Graph

Search for Another Location

Airport or City:

Trip Planner

Search our weather history database for the weather conditions in past years. The results will help you decide how hot, cold, wet, or windy it might be!

Date:

Astronomy

Apr. 03, 2014 Rise Set
Actual Time 6:22 AM PDT 7:01 PM PDT
Civil Twilight 5:57 AM PDT 7:26 PM PDT
Nautical Twilight 5:27 AM PDT 7:56 PM PDT
Astronomical Twilight 4:56 AM PDT 8:27 PM PDT
Moon 9:02 AM PDT (4/3) 11:16 PM PDT (4/3)
Length of Visible Light 13h 29m
Length of Day
12h 38m
Waxing Crescent, 18% of the Moon is Illuminated
Apr 3
Waxing Crescent
Apr 7
First Quarter
Apr 15
Full
Apr 22
Last Quarter
Apr 28
New

Hourly Weather History & Observations

Time (PDT) Temp. Dew Point Humidity Pressure Visibility Wind Dir Wind Speed Gust Speed Precip Events Conditions
12:56 AM 54.0 °F 28.9 °F 38% 29.92 in 10.0 mi NW 6.9 mph - N/A   Clear
1:56 AM 51.1 °F 27.0 °F 39% 29.93 in 10.0 mi West 5.8 mph - N/A   Clear
2:56 AM 50.0 °F 27.0 °F 41% 29.93 in 10.0 mi WSW 4.6 mph - N/A   Clear
4:56 AM 48.0 °F 27.0 °F 44% 29.96 in 10.0 mi Calm Calm - N/A   Clear
5:56 AM 46.0 °F 30.0 °F 54% 29.99 in 10.0 mi Calm Calm - N/A   Clear
6:56 AM 46.9 °F 30.0 °F 52% 30.02 in 10.0 mi WNW 4.6 mph - N/A   Clear
7:56 AM 51.1 °F 32.0 °F 48% 30.04 in 10.0 mi Calm Calm - N/A   Clear
8:56 AM 55.0 °F 30.9 °F 40% 30.05 in 10.0 mi ESE 5.8 mph - N/A   Clear
9:56 AM 60.1 °F 30.9 °F 33% 30.07 in 10.0 mi Variable 3.5 mph - N/A   Clear
10:56 AM 64.9 °F 30.0 °F 27% 30.06 in 10.0 mi North 8.1 mph - N/A   Clear
11:56 AM 68.0 °F 27.0 °F 21% 30.05 in 10.0 mi NNE 10.4 mph 16.1 mph N/A   Clear
12:56 PM 70.0 °F 26.1 °F 19% 30.02 in 10.0 mi NNE 12.7 mph - N/A   Clear
1:56 PM 73.0 °F 23.0 °F 15% 30.00 in 10.0 mi NE 10.4 mph 18.4 mph N/A   Clear
2:56 PM 72.0 °F 21.0 °F 15% 29.98 in 10.0 mi West 5.8 mph - N/A   Clear
3:56 PM 75.0 °F 21.0 °F 13% 30.00 in 10.0 mi NE 6.9 mph - N/A   Clear
4:56 PM 73.9 °F 19.9 °F 13% 29.94 in 10.0 mi SSE 4.6 mph - N/A   Clear
5:56 PM 73.9 °F 19.9 °F 13% 29.92 in 10.0 mi SSW 6.9 mph - N/A   Clear
6:56 PM 71.1 °F 19.9 °F 14% 29.92 in 10.0 mi ESE 8.1 mph - N/A   Clear
9:56 PM 66.0 °F 15.1 °F 14% 29.94 in 10.0 mi West 10.4 mph - N/A   Clear
10:56 PM 63.0 °F 14.0 °F 15% 29.93 in 10.0 mi WSW 10.4 mph - N/A   Clear
11:56 PM 61.0 °F 15.1 °F 17% 29.93 in 10.0 mi SSE 4.6 mph - N/A   Clear